Glendale Luke AFB, AZ

9:08 PM MST on September 19, 2019 (GMT -0700)
Luke Air Force Base

Weather History for KLUF - August, 2019

Change the Weather History Date:

Tuesday, August 20, 2019

  Actual Average Record
Temperature  
Mean Temperature 94 °F -  
Max Temperature 111 °F 105 °F 114 °F (1982)
Min Temperature 78 °F 73 °F 50 °F (1917)
Cooling Degree Days 30    
Growing Degree Days 44 (Base 50)    
Moisture  
Dew Point 37 °F    
Average Humidity 14    
Maximum Humidity 28    
Minimum Humidity 7    
Precipitation  
Precipitation 0.00 in - - ()
Sea Level Pressure  
Sea Level Pressure 29.74 in    
Wind  
Wind Speed 6 mph (WNW)    
Max Wind Speed 12 mph    
Max Gust Speed -    
Visibility 10 miles    
Events Rain    
Averages and records for this station are not official NWS values.
T = Trace of Precipitation, MM = Missing Value Source: NWS Daily Summary

Daily Weather History Graph

Daily Weather History Graph

Search for Another Location

Airport or City:

Astronomy

Aug. 20, 2019 Rise Set
Actual Time 5:55 AM MST 7:10 PM MST
Civil Twilight 5:29 AM MST 7:35 PM MST
Nautical Twilight 4:58 AM MST 8:06 PM MST
Astronomical Twilight 4:26 AM MST 8:38 PM MST
Moon 10:14 PM MST 10:23 AM MST
Length of Visible Light 14h 06m
Length of Day
13h 14m
Waning Gibbous, 77% of the Moon is Illuminated
Aug 20
Waning Gibbous
Aug 23
Last Quarter
Aug 30
New
Sep 5
First Quarter
Sep 13
Full

Hourly Weather History & Observations

Time (MST) Temp. Dew Point Humidity Pressure Visibility Wind Dir Wind Speed Gust Speed Precip Events Conditions
1:58 AM 82.4 °F 39.7 °F 22% 29.75 in 10.0 mi North 10.4 mph - N/A   Clear
2:58 AM 81.5 °F 42.3 °F 25% 29.75 in 10.0 mi NW 4.6 mph - N/A   Clear
3:58 AM 81.0 °F 39.7 °F 23% 29.75 in 10.0 mi NNE 4.6 mph - N/A   Scattered Clouds
4:58 AM 81.0 °F 41.7 °F 25% 29.77 in 10.0 mi North 6.9 mph - N/A   Clear
5:58 AM 78.4 °F 42.6 °F 28% 29.79 in 10.0 mi North 4.6 mph - N/A   Clear
6:58 AM 83.1 °F 41.5 °F 23% 29.80 in 10.0 mi NE 4.6 mph - N/A   Clear
7:58 AM 88.9 °F 41.2 °F 19% 29.81 in 10.0 mi NE 5.8 mph - N/A   Clear
8:58 AM 93.9 °F 39.2 °F 15% 29.81 in 10.0 mi NE 4.6 mph - N/A   Clear
9:58 AM 98.4 °F 39.0 °F 13% 29.81 in 10.0 mi South 3.5 mph - N/A   Clear
10:58 AM 102.0 °F 39.7 °F 12% 29.80 in 10.0 mi South 4.6 mph - N/A   Clear
11:28 AM 104.0 °F 35.6 °F 9% 29.78 in 10.0 mi SSW 4.6 mph - N/A Rain Light Rain
11:31 AM 104.0 °F 35.6 °F 9% 29.78 in 10.0 mi SSW 4.6 mph - N/A   Clear
11:38 AM 104.0 °F 37.4 °F 10% 29.78 in 10.0 mi Calm Calm - N/A   Light Drizzle
11:58 AM 105.3 °F 34.9 °F 9% 29.78 in 10.0 mi Calm Calm - N/A   Clear
12:58 PM 107.8 °F 30.6 °F 7% 29.75 in 10.0 mi Calm Calm - N/A   Clear
1:58 PM 109.6 °F 31.8 °F 7% 29.72 in 10.0 mi Calm Calm - N/A   Clear
2:58 PM 110.7 °F 32.5 °F 7% 29.70 in 10.0 mi WSW 11.5 mph - N/A   Clear
3:58 PM 111.9 °F 33.4 °F 7% 29.67 in 10.0 mi SSW 11.5 mph - N/A   Clear
4:58 PM 111.2 °F 32.9 °F 7% 29.66 in 10.0 mi West 8.1 mph - N/A   Clear
5:58 PM 110.1 °F 32.2 °F 7% 29.65 in 10.0 mi WNW 6.9 mph - N/A   Clear
6:58 PM 107.8 °F 36.7 °F 9% 29.66 in 10.0 mi West 6.9 mph - N/A   Clear
7:58 PM 102.2 °F 37.8 °F 11% 29.66 in 10.0 mi WSW 6.9 mph - N/A   Clear
8:58 PM 98.6 °F 39.2 °F 13% 29.68 in 10.0 mi West 5.8 mph - N/A   Clear
9:58 PM 95.4 °F 42.1 °F 16% 29.68 in 10.0 mi Calm Calm - N/A   Clear
10:58 PM 94.6 °F 41.4 °F 16% 29.69 in 10.0 mi Calm Calm - N/A   Clear
11:58 PM 93.7 °F 31.3 °F 11% 29.69 in 10.0 mi NW 6.9 mph - N/A   Clear